Location: Peebles
(55.6412°N, 3.1714°W)
Time: 01:42:28
(UTC+01:00)

deb r/b Ablestar - Pass Details

Date: 10 July 2022
Orbit: 859 x 1154 km, 67.2° (Epoch: 13 August)

Event Time Altitude Azimuth Distance (km) Brightness Sun altitude
Rises 23:55:30 0° 317° (NW) 4,013 ? -10.1°
Reaches altitude 10° 23:58:13 10° 317° (NW) 3,061 ? -10.3°
Maximum altitude 00:05:35 85° 231° (SW) 1,163 ? -10.6°
Enters shadow 00:12:35 11° 143° (SE) 2,919 ? -10.9°
